Bălţi City Airport

Jump to: basic info | weather | comments

Related pages: nearby airports | nearby navaids

Basic information (top)

Location: lon 47.774399, lat 27.957500
Status: medium_airport
Scheduled airline service: yes
Links: Wikipedia Mobile

Weather (top)

Current conditions for Balti International Airport 8nm (15km) WNW (rec'd 2015/03/06 12:00Z):

LUBL 061200Z 03006KT 360V070 9999 BKN040CB 06/M03 Q1029

Airport forecast for Chişinău International Airport 64nm (119km) SE (rec'd 2014/12/31 06:24Z):

TAF TAF LUKK 310520Z 3106/3118 33010KT CAVOK

Latest comments (top)

No comments yet for Bălţi City Airport

More... (top)

See also NOTAMs and nearby airports and navaids, or visit the Bălţi City Airport page at the main OurAirports website..